Terminal Aerodrome Forecast
Issued by NWS Wilmington, OH

Current Version | Previous Version | Graphics & Text | Print | Product List | Glossary On
Versions: 1 2 3 4 5 6 7 8 9 10 11 12 13 14 15 16 17 18 19 20 21 22 23 24 25 26 27 28 29 30 31 32 33 34 35 36 37 38 39
688
FTUS41 KILN 272059 AAC
TAFCVG
TAF AMD
KCVG 272059Z 2721/2824 08004KT 4SM BR VCSH OVC017
      TEMPO 2721/2722 -SHRA
     FM280300 10006KT 5SM -SHRA BR OVC025
     FM280700 17004KT 3SM BR VCSH OVC008
     FM281400 24008KT P6SM BKN015
     FM281800 26010KT P6SM VCSH BKN035=

USA.gov is the U.S. government's official web portal to all federal, state and local government web resources and services.